Location: Moulis
(42.9609°N, 1.0909°E)
Time: 17:30:12
(UTC+00:00)

EXPRESS MD2 - Pass Details

Date: 11 December 2025
Orbit: 257 x 2825 km, 49.8° (Epoch: 22 January)

Event Time Altitude Azimuth Distance (km) Brightness Sun altitude
Rises 17:43:51 0° 227° (SW) 1,901 7.3 -14.6°
Reaches altitude 10° 17:45:28 10° 221° (SW) 1,180 5.9 -14.8°
Maximum altitude 17:47:52 51° 143° (SE) 475 2.8 -15.3°
Enters shadow 17:48:48 35° 89° (E) 671 3.2 -15.4°
